Volver al catálogo

FENGYUN 1C DEB

ActivoPO
NORAD 30452·DEBRIS·🇨🇳 China

Lanzado May 10, 1999 desde Taiyuan Satellite Launch Center

Loading…

Próximos Pases (próximas 24 horas)

TLE

ActualizadoSource: Space-Track

Época: Sep 14, 2026, 11:19 UTC

1 30452U 99025AFP 26257.47182551  .00012160  00000-0  18010-2 0  9996
2 30452  99.3366  80.5856 0040549 125.1901 265.1678 14.74753857 21442

Sigue FENGYUN 1C DEB en tiempo real con AllMySat

Download on the App Store